Satellite-Ground Cal/Val Site Overpasses Predictions

Prediction of Satellite NPP Overpassing Cal/Val Site: Antarctic Dome C

Ground Cal/Val Site Location: Latitude: -75.10, Longitude: 123.35; Satellite-Ground Site NADIR distance within 100 km.

Table of predicted overpasses for the next 14.0 days since TLE Epoch: 11/22/2013
Interval Starting Time Ending Time Minimum Distance Time Minimum Distance (km)
1 11/23/2013 15:02:39 11/23/2013 15:03:02 11/23/2013 15:02:50 61.75
2 11/24/2013 14:43:49 11/24/2013 14:44:15 11/24/2013 14:44:02 47.23
3 11/25/2013 07:45:32 11/25/2013 07:45:53 11/25/2013 07:45:43 66.16
4 11/26/2013 07:26:42 11/26/2013 07:27:09 11/26/2013 07:26:56 41.81
5 11/28/2013 15:09:17 11/28/2013 15:09:17 11/28/2013 15:09:17 99.92
6 11/29/2013 14:50:14 11/29/2013 14:50:43 11/29/2013 14:50:28 11.29
7 12/01/2013 07:33:06 12/01/2013 07:33:35 12/01/2013 07:33:21 5.06
8 12/04/2013 14:56:40 12/04/2013 14:57:08 12/04/2013 14:56:54 25.59
9 12/05/2013 14:37:57 12/05/2013 14:38:14 12/05/2013 14:38:06 81.36


<
